Powrót do katalogu

STARLINK-5341

AktywnyŁącznośćVLEO
NORAD 55287·PAYLOAD·🇺🇸 United States

Wystrzelony Jan 19, 2023 z Vandenberg Space Force Base

Loading…

Następne Przeloty (najbliższe 24 godziny)

TLE

ŚwieżeSource: CelesTrak SupGP

Epoka: Sep 14, 2026, 21:31 UTC

1 55287C 23010U   26257.89701389  .00789290  00000+0  63607-1 0  2574
2 55287  70.0004 247.5381 0003182 266.4542 247.7602 14.99440897    17

Śledź STARLINK-5341 w czasie rzeczywistym z AllMySat

Download on the App Store